sat.trackr.live / text

‹ back to catalog

FORTE

NORAD 24920 · 1997-047A

PAYLOAD ACTIVE UNKNOWN

§ Identity

Operator
Country
US
Launch date
1997-08-29
Launch site
WRAS
Launch vehicle
Mass (kg)
RCS (m²)
1.35

External: N2YO · Heavens-Above · Gunter

§ Orbital elements

Epoch: 2026-05-25T02:50:46.773888Z

Period
100.84 min
Inclination
69.9540°
Eccentricity
0.0024158
Mean motion
14.27934444 rev/d
Perigee alt
781.3 km
Apogee alt
816.0 km
Semi-major
7,176.8 km
B*
8.5488e-5
RAAN
66.1261°
Arg perigee
305.4559°
Mean anomaly
54.4308°
Rev number
49,539

§ Raw data

FORTE1 24920U 97047A   26145.11859692  .00000155  00000+0  85488-4 0  99902 24920  69.9540  66.1261 0024158 305.4559  54.4308 14.27934444495391

JSON: /api/v1/satellites/24920 · /tle

For live sub-satellite position, see the globe view (requires WebGL).

§ Visibility from observer

Set your observer location to see the next 7 days of passes ≥ 10°. The values pass through the URL so the page stays shareable.

No JS? Fill the form by hand. The geolocation button needs JavaScript.

§ Radio — SatNOGS DB

ModeDescriptionDownlinkUplink
CW CW 401.568 MHz
BPSK TLM U 401.570 MHz

2 transmitters · refreshed weekly from db.satnogs.org